Location: Lynch Observatory
(39.9540°N, 75.1861°W)
Time: 13:00:47
(UTC-05:00)

Envisat - Visible Passes

Search period start: 18 January 2018 00:00
Search period end: 28 January 2018 00:00
Orbit: 764 x 766 km, 98.2° (Epoch: 18 January)

Date Brightness Start Highest point End Pass type
(mag) Time Alt. Az. Time Alt. Az. Time Alt. Az.
18 Jan 4.9 18:23:10 12° NNE 18:23:10 12° NNE 18:23:52 10° NNE visible
18 Jan 5.3 20:03:21 15° NNW 20:03:21 15° NNW 20:04:13 10° NNW visible
19 Jan 4.7 19:25:58 20° N 19:25:58 20° N 19:27:31 10° N visible
20 Jan 4.6 18:48:34 19° NNE 18:48:34 19° NNE 18:50:18 10° N visible
20 Jan 5.6 20:28:45 13° NW 20:28:45 13° NW 20:29:27 10° NNW visible
21 Jan 4.8 18:11:09 12° NE 18:11:09 12° NE 18:12:07 10° NNE visible
21 Jan 4.8 19:51:21 22° NNW 19:51:21 22° NNW 19:53:08 10° NNW visible
22 Jan 4.3 19:13:57 26° NNE 19:13:57 26° NNE 19:16:18 10° N visible
22 Jan 5.9 20:54:07 10° NW 20:54:07 10° NW 20:54:11 10° NW visible
23 Jan 4.4 18:36:31 20° NE 18:36:31 20° NE 18:38:53 10° NNE visible
23 Jan 5.1 20:16:43 21° NW 20:16:43 21° NW 20:18:30 10° NNW visible
24 Jan 4.8 17:59:05 11° NE 17:59:05 11° NE 17:59:50 10° NE visible
24 Jan 4.1 19:39:17 33° N 19:39:17 33° N 19:42:02 10° NNW visible
25 Jan 3.9 19:01:50 31° NNE 19:01:50 31° NNE 19:05:02 10° N visible
25 Jan 5.5 20:42:01 16° NW 20:42:01 16° NW 20:43:30 10° NW visible
26 Jan 4.3 18:24:23 18° ENE 18:24:23 18° ENE 18:27:23 10° NNE visible
26 Jan 4.4 20:04:34 33° NW 20:04:34 33° NW 20:07:30 10° NNW visible
27 Jan 3.4 19:27:07 48° N 19:27:07 48° N 19:30:53 10° N visible
27 Jan 6.0 21:07:18 11° WNW 21:07:18 11° WNW 21:07:36 10° WNW visible
